This is the latest recevied weather packets stored in our database for station/object W5ITZ. If no packets are shown the sender has not sent any weather packets the latest 10 day(s).
| Time | Temp. | Humidity | Pressure | Rain* | Wind** | Luminosity | Snow |
|---|---|---|---|---|---|---|---|
| 1788007365 | 24.44° C | 93% | 1017.3 hPa | 0 mm | - | 40 W/m² | - |
| 1788007059 | 23.89° C | 94% | 1017.3 hPa | 0 mm | - | 37 W/m² | - |
| 1788006758 | 23.89° C | 94% | 1017.2 hPa | 0 mm | - | 34 W/m² | - |
| 1788006453 | 23.89° C | 94% | 1017.2 hPa | 0 mm | - | 27 W/m² | - |
| 1788006153 | 23.89° C | 94% | 1017.2 hPa | 0 mm | - | 21 W/m² | - |
| 1788005852 | 23.33° C | 94% | 1017.2 hPa | 0 mm | - | 15 W/m² | - |
| 1788005547 | 23.33° C | 94% | 1017.3 hPa | 0 mm | - | 10 W/m² | - |
| 1788005246 | 23.33° C | 94% | 1017.1 hPa | 0 mm | - | 6 W/m² | - |
| 1788004944 | 23.33° C | 94% | 1016.9 hPa | 0 mm | - | 4 W/m² | - |
| 1788004644 | 23.33° C | 94% | 1017.3 hPa | 0 mm | - | 2 W/m² | - |
| 1788004345 | 23.33° C | 94% | 1017.3 hPa | 0 mm | - | 1 W/m² | - |
| 1788004033 | 23.33° C | 93% | 1017.2 hPa | 0 mm | - | 0 W/m² | - |
| 1788003731 | 23.33° C | 93% | 1017.2 hPa | 0 mm | - | 0 W/m² | - |
| 1788003427 | 23.33° C | 93% | 1017 hPa | 0 mm | - | 0 W/m² | - |
| 1788003121 | 23.33° C | 93% | 1017.3 hPa | 0 mm | - | 0 W/m² | - |
| 1788002820 | 23.33° C | 93% | 1017 hPa | 0 mm | - | 0 W/m² | - |
| 1788002516 | 23.33° C | 93% | 1017.2 hPa | 0 mm | - | 0 W/m² | - |
| 1788002212 | 23.33° C | 93% | 1017.2 hPa | 0 mm | - | 0 W/m² | - |
| 1788001912 | 23.33° C | 93% | 1017.1 hPa | 0 mm | - | 0 W/m² | - |
| 1788001607 | 23.33° C | 92% | 1017.4 hPa | 0 mm | - | 0 W/m² | - |
| 1788001302 | 23.89° C | 92% | 1017.3 hPa | 0 mm | - | 0 W/m² | - |
| 1788001001 | 23.89° C | 92% | 1017.1 hPa | 0 mm | - | 0 W/m² | - |
| 1788000697 | 23.89° C | 92% | 1017.2 hPa | 0 mm | - | 0 W/m² | - |
| 1788000392 | 23.89° C | 92% | 1017 hPa | 0 mm | - | 0 W/m² | - |
| 1788000091 | 23.89° C | 92% | 1017.1 hPa | 0 mm | - | 0 W/m² | - |
* Rain latest hour (hover to see other rain measurements)
** Current wind speed in m/s (hover to see current wind gust speed)